EW5790 Weather Reports


time (UTC)temp
C
wind
direction
speed
KPH
gust
KPH
rain 1hr
cm
rain 24hr
cm
rain mn
cm
humidity
%
barometer
mb
20260509021504 11 269 0.0 0.0 0.00 0.03 0.03 64 1011.4
20260509020057 11 269 0.0 0.0 0.00 0.03 0.03 66 1011.3
20260509014552 12 269 0.0 0.0 0.00 0.03 0.03 67 1011.2
20260509013051 12 269 0.0 0.0 0.00 0.03 0.03 68 1011.1
20260509011555 13 269 0.0 0.0 0.00 0.03 0.03 68 1011.2
20260509010045 15 269 0.0 0.0 0.00 0.03 0.03 66 1011.2
20260509004541 16 269 0.0 0.0 0.00 0.03 0.03 63 1011.2
20260509003031 17 269 0.0 0.0 0.00 0.03 0.03 61 1011.2
20260509001526 18 269 0.0 0.0 0.00 0.03 0.03 56 1011.3
20260509000021 20 269 0.0 0.0 0.00 0.03 0.03 51 1011.4
20260508234517 21 269 0.0 0.0 0.00 0.03 0.03 40 1011.5
20260508233013 21 286 0.0 0.0 0.00 0.03 0.03 35 1011.5
20260508231508 21 258 0.0 0.0 0.00 0.03 0.03 37 1011.6
20260508230007 22 240 0.0 0.0 0.00 0.03 0.03 34 1011.8
20260508224603 22 266 0.0 0.0 0.00 0.03 0.03 33 1011.9
20260508223059 22 238 0.0 0.0 0.00 0.03 0.03 34 1011.8
20260508221551 22 261 0.0 0.0 0.00 0.03 0.03 31 1011.9
20260508220049 22 262 0.0 0.0 0.00 0.03 0.03 33 1011.7
20260508214552 22 124 0.0 0.0 0.00 0.03 0.03 35 1011.7
20260508213038 22 219 0.0 0.0 0.00 0.03 0.03 34 1011.8
20260508211535 22 300 0.0 0.0 0.00 0.03 0.03 30 1012.1
20260508210030 22 240 0.0 0.0 0.00 0.03 0.03 31 1012.1
20260508204531 22 355 0.0 0.0 0.00 0.03 0.03 35 1012.3
20260508203023 22 258 0.0 0.0 0.00 0.03 0.03 31 1012.5
20260508201520 22 145 0.0 0.0 0.00 0.03 0.03 36 1012.5
20260508200014 22 161 0.0 0.0 0.00 0.03 0.03 35 1012.6
20260508194509 22 256 0.0 0.0 0.00 0.03 0.03 33 1012.8
20260508193004 22 336 0.0 0.0 0.00 0.03 0.03 38 1013.3
20260508191602 21 252 0.0 0.0 0.00 0.03 0.03 37 1013.5
20260508190056 21 146 0.0 0.0 0.00 0.03 0.03 37 1013.7
20260508184601 21 103 0.0 0.0 0.00 0.03 0.03 36 1014.0
20260508183049 21 196 0.0 0.0 0.00 0.03 0.03 39 1014.3
20260508181557 20 114 0.0 0.0 0.00 0.03 0.03 41 1014.6
20260508180041 20 98 0.0 0.0 0.00 0.03 0.03 37 1014.9
20260508174537 20 122 0.0 0.0 0.00 0.03 0.03 40 1015.2
20260508173030 20 311 0.0 0.0 0.00 0.03 0.03 43 1015.5
20260508171528 20 173 0.0 0.0 0.00 0.03 0.03 39 1015.9
20260508170021 20 171 0.0 0.0 0.00 0.03 0.03 40 1016.2
20260508164516 20 296 0.0 0.0 0.00 0.03 0.03 44 1016.4
20260508163012 19 83 0.0 0.0 0.00 0.03 0.03 42 1016.6
20260508161507 18 170 0.0 0.0 0.00 0.03 0.03 48 1016.8
20260508160009 18 126 0.0 0.0 0.00 0.03 0.03 50 1017.1
20260508154559 18 219 0.0 0.0 0.00 0.03 0.03 48 1017.3
20260508153054 18 136 0.0 0.0 0.00 0.03 0.03 48 1017.5
20260508151553 17 267 0.0 0.0 0.00 0.03 0.03 49 1017.7
20260508150045 17 192 0.0 0.0 0.00 0.03 0.03 48 1017.6
20260508144540 17 181 0.0 0.0 0.00 0.03 0.03 51 1017.8
20260508143043 16 119 0.0 0.0 0.00 0.03 0.03 53 1017.9
20260508141542 15 155 0.0 0.0 0.00 0.03 0.03 57 1018.2
20260508140027 15 247 0.0 0.0 0.00 0.03 0.03 63 1018.1
20260508134530 13 113 0.0 0.0 0.00 0.03 0.03 63 1018.1
20260508133019 12 114 0.0 0.0 0.00 0.03 0.03 45 1018.2
20260508131514 10 114 0.0 0.0 0.00 0.03 0.03 20 1018.1
20260508130010 8 140 0.0 0.0 0.00 0.03 0.03 1 1018.1
20260508124509 7 140 0.0 0.0 0.00 0.03 0.03 1 1018.1
20260508123101 6 140 0.0 0.0 0.00 0.03 0.03 1 1018.1
20260508121607 5 140 0.0 0.0 0.00 0.03 0.03 1 1017.9
20260508120052 3 140 0.0 0.0 0.00 0.03 0.03 1 1017.8
20260508114547 2 140 0.0 0.0 0.00 0.03 0.03 1 1017.7
20260508113043 1 140 0.0 0.0 0.00 0.03 0.03 1 1017.7
20260508111539 1 140 0.0 0.0 0.00 0.03 0.03 1 1017.3
20260508110047 1 140 0.0 0.0 0.00 0.03 0.03 1 1017.2
20260508104532 1 140 0.0 0.0 0.00 0.03 0.03 1 1017.1
20260508103031 1 140 0.0 0.0 0.00 0.03 0.03 1 1016.9
20260508101524 1 140 0.0 0.0 0.00 0.03 0.03 1 1016.7
20260508100021 1 140 0.0 0.0 0.00 0.03 0.03 1 1016.8
20260508094515 1 140 0.0 0.0 0.00 0.03 0.03 1 1016.9
20260508093017 1 116 0.0 0.0 0.00 0.03 0.03 1 1016.9
20260508091512 1 116 0.0 0.0 0.00 0.03 0.03 1 1016.9
20260508090004 1 117 0.0 0.0 0.00 0.03 0.03 1 1016.9
20260508084558 1 116 0.0 0.0 0.00 0.03 0.03 1 1016.9
20260508083131 1 116 0.0 0.0 0.00 0.03 0.03 1 1016.9
20260508081554 1 116 0.0 0.0 0.00 0.03 0.03 1 1016.9
20260508080055 1 116 0.0 0.0 0.00 0.03 0.03 1 1016.8
20260508074540 2 116 0.0 0.0 0.03 0.03 0.03 1 1016.7
20260508073038 2 117 0.0 0.0 0.03 0.03 0.03 1 1016.7
20260508071534 2 116 0.0 0.0 0.03 0.03 0.03 1 1016.8
20260508070027 2 116 0.0 0.0 0.00 0.00 0.00 1 1016.8
20260508064540 2 116 0.0 0.0 0.00 0.00 0.00 1 1016.9
20260508063018 3 116 0.0 0.0 0.00 0.00 0.00 1 1016.9
20260508061517 3 117 0.0 0.0 0.00 0.00 0.00 1 1017.0
20260508060010 3 117 0.0 0.0 0.00 0.00 0.00 1 1017.0
20260508054505 3 321 0.0 0.0 0.00 0.00 0.00 1 1017.1
20260508053106 3 321 0.0 0.0 0.00 0.00 0.00 1 1017.0
20260508051557 3 321 0.0 0.0 0.00 0.00 0.00 1 1017.1
20260508050056 3 321 0.0 0.0 0.00 0.00 0.00 1 1017.2
20260508044548 4 321 0.0 0.0 0.00 0.00 0.00 1 1017.1
20260508043044 4 321 0.0 0.0 0.00 0.00 0.00 1 1017.0
20260508041540 5 321 0.0 0.0 0.00 0.00 0.00 1 1016.7
20260508040037 5 321 0.0 0.0 0.00 0.00 0.00 1 1016.6
20260508034531 5 321 0.0 0.0 0.00 0.00 0.00 1 1016.4
20260508033025 5 321 0.0 0.0 0.00 0.00 0.00 12 1016.5
20260508031521 6 321 0.0 0.0 0.00 0.00 0.00 12 1016.5
20260508030017 6 321 0.0 0.0 0.00 0.00 0.00 14 1016.5
20260508024522 6 321 0.0 0.0 0.00 0.00 0.00 28 1016.5
20260508023008 7 321 0.0 0.0 0.00 0.00 0.00 38 1016.2